{"data":{"norad_id":66825,"epoch":"2026-05-25T03:18:35.035200Z","epoch_age_seconds":56453,"freshness":"FRESH","line1":"1 66825U 25280E   26145.13790550  .00001782  00000+0  15708-3 0  9993","line2":"2 66825  70.0004 141.8443 0003802 266.4093  93.6631 14.98334245 27514","mean_motion":14.98334245,"eccentricity":0.0003802,"inclination_deg":70.0004,"raan_deg":141.8443,"arg_perigee_deg":266.4093,"mean_anomaly_deg":93.6631,"bstar":0.00015708,"rev_number":2751,"period_min":96.106726840512,"perigee_km":569.40030531694,"apogee_km":574.68522200923,"semimajor_km":6950.1797636631,"source":"CELESTRAK","updated_at":"2026-05-25T13:38:21.334157Z"}}